Aérodrome :
LOGIN :

S'inscrire | Disclaimer

   EN    FR    IT 

 










Légende :    VFR   VFR Marginal   IFR   IFR Intensif   IFR Très Intensif
Visi : 
Plafond : 
>= 8 km
>= 3000ft
5 à 8 km
1000 à 3000 ft
1500m à 5 km
500 à 1000 ft
800 à 1500m
200 à 500 ft
< 800m
< 200 ft
Symboles :   Orages  Brouillard  Fortes neiges  Fortes précipitations  Vent > 20 kt
SIGMETs :   Divers  Orages  Givrage  Turbulence  Onde Orograph.  Cendres Volcan.







- Altitude de l'aérodrome : 28 ft
- Code IATA : SOZ
- Voir les cartes d'approche


LFKS - Solenzara

DERNIER METAR :
  • 190830Z AUTO 04013KT CAVOK 29/16 Q1018

METARs EXPIRÉS :
  • 190800Z AUTO 03013KT 360V060 CAVOK 30/15 Q1018
  • 190730Z AUTO 36011KT 320V020 CAVOK 30/13 Q1018
  • 190700Z AUTO 36010KT 320V020 CAVOK 29/13 Q1018
  • 190630Z AUTO 35009KT CAVOK 28/14 Q1018
  • 190600Z AUTO 35009KT CAVOK 27/14 Q1017

TAF TAF LFKS
Valide du 19 à 09h jusqu'au 20 à 09h UTC


190800Z 1909/2009 05015KT 9999 FEW060
Pas de NOTAMs connus pour ce terrain.



MET'MAP, la Météo Aéronautique d'un coup d'oeil ! - Copyright ORBIFLY Décembre 2007 - Disclaimer

ORBIFLY MET'MAP TEAM :

Programmation & Développement : Alexandra Zaïnal
Conception & Développement : Baudouin d'Aumeries
Co-Programmation & Développement : Marc-Olivier Méhu
Soutien technique & logistique : Manuel Goepfert

Contact : metmap@orbifly.com




SOURCES & CREDITS :

   NOAA